Location: Akgöl Batakl???
(38.9482°N, 31.8837°E)
Time: 08:44:49
(UTC+00:00)

Cosmos 1634 Rocket - Pass Details

Date: 08 May 2026
Orbit: 960 x 990 km, 82.9° (Epoch: 6 June)

Event Time Altitude Azimuth Distance (km) Brightness Sun altitude
Exits shadow 21:13:12 59° 24° (NNE) 1,104 4.3 -33.2°
Drops below altitude 10° 21:18:09 10° 10° (N) 2,705 7.1 -33.3°
Sets 21:20:40 0° 9° (N) 3,658 8.0 -33.4°
